Location: ???? ???? ?????
(31.2680°N, 31.7283°E)
Time: 09:50:35
(UTC+00:00)

USA 245 - Pass Details

Date: 13 July 2020
Orbit: 271 x 1010 km, 97.9° (Epoch: 03 August)

Event Time Altitude Azimuth Distance (km) Brightness Sun altitude
Exits shadow 19:27:08 54° 284° (WNW) 686 3.9 -25.8°
Drops below altitude 10° 19:31:13 10° 340° (NNW) 2,082 7.2 -26.3°
Sets 19:33:47 0° 344° (NNW) 3,137 8.2 -26.7°
